Regional Weather Roundup
Issued by NWS

Home | Current Version | Previous Version | Graphics & Text | Print | Product List | Glossary Off
Versions: 1 2 3 4 5 6 7 8 9 10 11 12 13 14 15 16 17 18 19 20 21 22 23 24 25 26 27 28 29 30 31 32 33 34 35 36 37 38 39 40 41 42 43 44 45 46 47 48 49

000
ASUS45 KBOU 302007
RWRCO

WEATHER ROUNDUP FOR COLORADO
NATIONAL WEATHER SERVICE DENVER/BOULDER CO
200 PM MDT WED JUL 30 2014

NOTE: "FAIR" INDICATES FEW OR NO CLOUDS BELOW 12000 FEET WITH NO
SIGNIFICANT WEATHER AND/OR OBSTRUCTIONS TO VISIBILITY.

COZ001>005-013-030-031-302100-
...NORTHWEST COLORADO...

CITY           SKY/WX    TMP DP  RH WIND       PRES   REMARKS
CRAIG          CLOUDY    67  55  65 W6        30.28F
HAYDEN         PTSUNNY   64  54  68 E8        30.30F
MEEKER         PTSUNNY   74  52  46 W8        30.28F
MOUNT WERNER   NOT AVBL
STEAMBOAT SPGS CLOUDY    61  55  79 CALM      30.32F
WALDEN         CLOUDY    55  45  67 CALM      30.42S
$$

COZ006>008-011-302100-
...WEST CENTRAL VALLEYS...

CITY           SKY/WX    TMP DP  RH WIND       PRES   REMARKS
GRAND JUNCTION PTSUNNY   78  53  41 CALM      30.16F
MONTROSE       SUNNY     79  51  37 VRB5      30.23F
EAGLE          LGT RAIN  72  55  56 S7        30.28F
RIFLE          PTSUNNY   77  52  41 VRB6      30.21F
DELTA          SUNNY     85  51  30 S6        30.19S
NUCLA          CLOUDY    79  50  36 SW3       30.28S
$$

COZ017>023-064>068-302100-
...SOUTHWEST COLORADO...

CITY           SKY/WX    TMP DP  RH WIND       PRES   REMARKS
DURANGO        MOSUNNY   85  47  26 W16       30.25S
CORTEZ         SUNNY     84  46  26 MISG      30.21F
PAGOSA SPRINGS CLOUDY    68  49  51 CALM      30.33S
TELLURIDE      PTSUNNY   68  48  49 W10       30.44S
WOLF CREEK PAS NOT AVBL
$$

COZ009-010-012-014-032>034-037-058>063-302100-
...CENTRAL COLORADO...

CITY           SKY/WX    TMP DP  RH WIND       PRES   REMARKS
ASPEN          CLOUDY    67  47  48 NW7       30.35F
BUENA VISTA    CLOUDY    68  48  47 SE14      30.38R
COPPER MTN     CLOUDY    54  43  66 SW6       30.64S
BERTHOUD PASS  LGT RAIN  37  37 100 E17       30.68S VSB<1/4
COTTONWOOD PAS CLOUDY    63  45  51 SE6       30.49F
GUNNISON       MOSUNNY   70  46  43 N13       30.35F
KREMMLING      CLOUDY    59  54  82 N5        30.37F
LEADVILLE      CLOUDY    60  43  53 S12       30.46F
MONARCH PASS   CLOUDY    52  45  76 W6        30.74R
SALIDA         CLOUDY    63  58  85 SE12G18   30.43R
SUNLIGHT       CLOUDY    55  50  82 CALM      30.58S
WILKERSON PASS FOG       45  45 100 E6        30.63S VSB 1/2
$$

COZ069>075-302100-
...SAN LUIS VALLEY/SANGRE DE CRISTO MOUNTAINS...

CITY           SKY/WX    TMP DP  RH WIND       PRES   REMARKS
ALAMOSA        MOSUNNY   75  48  38 VRB7      30.32S
LA VETA PASS   LGT RAIN  50  48  93 NE8       30.54S VSB 1/4
SAGUACHE       PTSUNNY   72  50  46 SE6       30.34F
$$

COZ035-036-038>040-302100-
...NORTHERN COLORADO FRONT RANGE...

CITY           SKY/WX    TMP DP  RH WIND       PRES   REMARKS
DENVER INTL AP LGT RAIN  60  56  86 CALM      30.35R
DMNS CITY PARK   N/A     60  58  92 NE8       30.34S
AURORA         DRIZZLE   59  59 100 N5        30.36S
FRONT RANGE AP NOT AVBL
ERIE MUNI ARPT DRIZZLE   61  58  92 NE8       30.34F
BOULDER MUN AP   N/A    N/A N/A N/A MISG        N/A
CENTENNIAL     CLOUDY    61  56  83 N9        30.35F FOG
BROOMFIELD     DRIZZLE   59  57  94 N9        30.36S FOG
FORT COLLINS   CLOUDY    61  57  88 N6        30.36S
LONGMONT       LGT RAIN  63  59  89 N5        30.36S
$$

COZ041-046-047-076>085-087-088-302100-
...PIKES PEAK/PALMER DIVIDE AND SOUTHERN FOOTHILLS...

CITY           SKY/WX    TMP DP  RH WIND       PRES   REMARKS
COLO. SPRINGS  LGT RAIN  59  56  89 CALM      30.37S FOG
A. F. ACADEMY  LGT RAIN  57  57 100 VRB2      30.38S
ELLICOTT       CLOUDY    62  55  77 E14       30.35S
FALCON         RAIN      57  55  91 E9        30.40S
FORT CARSON    LGT RAIN  59  59 100 SW6       30.35S FOG
LIMON          LGT RAIN  60  55  83 SE7       30.34S
MONUMENT HILL  CLOUDY    55  52  88 E10       30.39S FOG
TRINIDAD       LGT RAIN  61  58  90 NE12      30.32R
$$

COZ042>045-048>051-090-091-302100-
...NORTHEAST COLORADO...

CITY           SKY/WX    TMP DP  RH WIND       PRES   REMARKS
GREELEY ARPT   NOT AVBL
AKRON          CLOUDY    63  56  78 S7        30.32R
BURLINGTON     CLOUDY    66  54  65 E13       30.28S
WRAY             N/A     71  55  56 CALM      30.27S
STERLING       LGT RAIN  66  64  94 W5        30.29S
HOLYOKE        PTSUNNY   77  54  44 CALM      30.26S
FORT MORGAN    CLOUDY    63  58  83 SE5       30.32S
$$

COZ086-089-092>099-302100-
...SOUTHEAST COLORADO...

CITY           SKY/WX    TMP DP  RH WIND       PRES   REMARKS
PUEBLO         LGT RAIN  63  61  93 SE9       30.29S FOG
LA JUNTA       CLOUDY    67  59  75 NE15      30.27S
LAMAR          CLOUDY    66  59  78 E13       30.24S
SPRINGFIELD      N/A     63  59  87 NE17      30.25R
$$


USA.gov is the U.S. government's official web portal to all federal, state and local government web resources and services.